Temperature
19 19 19 19 19 19 18 18 18 18 18 18 18 18 18 18 18 18 18 18 18 18 18 18 18 18 18 18 18 18 18 18 18 18 18 18 18 17 17 17 17 17 17
19 20 19 19 19 19 19 18 18 18 18 18 18 18 18 18 18 18 18 18 18 18 18 18 18 18 18 18 18 18 18 18 18 18 18 18 18 17 17 17 17 17 17
20 19 19 19 19 19 19 18 18 19 19 18 18 18 18 18 18 18 18 18 18 18 18 18 18 18 18 18 18 18 18 18 18 18 17 18 18 17 17 17 17 17 17
20 19 19 19 19 19 19 19 19 19 18 18 18 18 18 18 18 18 18 18 18 18 18 18 18 18 18 18 18 18 18 18 18 17 17 17 18 17 17 17 17 17 17
19 20 20 19 19 19 19 19 19 18 18 18 18 18 18 18 18 18 18 18 18 18 18 18 18 18 18 18 18 18 18 17 17 17 17 17 18 18 17 17 17 17 17
19 20 20 19 19 19 19 19 19 18 18 18 18 18 18 18 18 18 18 18 18 18 18 18 18 18 18 18 18 18 18 18 17 17 17 18 18 18 17 17 17 17 17
20 20 20 20 19 19 19 19 19 19 18 18 18 18 18 18 18 18 18 18 18 18 18 18 18 18 18 18 18 18 18 18 18 17 17 18 18 18 17 17 17 17 17
20 20 20 20 19 19 19 19 19 19 19 18 18 18 18 18 18 18 18 18 18 18 18 18 18 18 18 18 18 18 18 18 18 17 18 18 18 18 18 17 17 17 17
21 20 20 20 20 19 19 19 19 19 19 19 19 18 18 18 18 18 18 18 18 18 18 18 18 18 18 18 18 18 18 18 18 18 18 18 18 18 18 17 17 17 17
21 20 20 19 19 19 19 19 19 19 19 19 19 18 18 18 18 18 18 18 18 18 18 18 18 18 18 18 18 18 18 18 18 18 18 18 18 18 18 18 17 17 17
22 21 20 20 19 19 19 19 19 19 19 19 19 18 18 18 18 18 18 18 18 18 18 18 18 18 18 18 18 19 19 18 18 18 18 18 18 18 18 18 17 17 17
22 21 21 20 20 20 19 19 19 19 19 19 18 18 18 18 18 18 18 18 18 18 18 18 18 18 18 18 18 19 19 19 18 19 18 18 18 18 18 18 18 17 17
22 21 21 20 20 20 20 19 19 19 19 18 18 18 18 18 18 18 18 18 18 18 18 18 18 18 18 18 18 19 19 19 19 19 19 18 18 18 18 18 18 18 17
22 21 21 20 20 20 20 20 19 19 19 19 19 19 18 18 18 18 18 18 18 18 18 18 18 18 18 18 18 18 19 19 19 19 18 18 18 18 18 18 18 18 18
22 21 21 20 20 20 20 20 20 19 19 19 19 19 19 19 19 19 18 18 18 18 18 18 18 18 18 18 18 18 18 18 19 19 18 18 18 18 18 18 18 18 18
22 21 20 20 20 20 20 20 19 19 19 19 19 19 19 19 18 18 19 19 19 18 18 18 18 18 18 18 18 18 18 18 18 18 18 18 18 18 18 18 18 18 18
21 21 20 20 20 20 20 20 19 19 19 19 19 19 19 19 19 19 18 19 19 19 19 19 18 18 18 18 18 18 18 18 18 18 18 18 18 18 18 18 18 18 18
22 21 21 21 20 20 20 20 19 19 19 19 19 19 19 19 19 19 19 19 19 19 19 18 18 18 18 18 18 19 19 19 18 18 18 18 18 18 18 18 18 18 18
22 21 21 21 20 20 20 20 20 19 19 19 19 19 19 19 19 19 19 19 19 18 18 18 18 18 18 19 19 19 19 19 19 19 18 18 18 18 18 18 18 18 18
22 21 21 21 20 20 20 20 19 19 19 19 19 19 19 19 19 19 19 19 18 18 18 18 18 18 18 18 19 19 19 19 19 19 19 19 19 18 18 18 18 18 18
22 21 21 21 20 20 20 20 19 19 19 19 19 19 19 19 19 19 19 18 18 18 18 18 18 18 18 18 18 19 19 19 19 19 19 19 19 19 19 18 18 18 18
22 21 21 21 21 20 20 20 19 19 19 19 19 19 19 19 19 18 18 18 18 18 18 18 18 18 18 18 18 18 18 19 19 19 19 19 19 19 19 18 18 18 18
22 22 21 21 21 20 20 20 19 19 19 19 19 19 19 19 19 18 18 18 18 18 18 18 18 18 18 18 18 18 18 18 19 19 19 19 19 19 19 18 18 18 17
23 22 22 21 21 21 20 20 19 19 19 19 19 19 19 19 18 18 18 18 18 18 18 18 18 18 18 18 18 18 18 18 18 18 18 18 18 18 18 18 18 18 17
23 22 22 21 21 21 20 20 20 20 19 19 19 19 19 19 18 18 18 18 18 18 18 18 18 18 18 18 18 18 18 18 18 18 18 18 18 18 18 18 17 17 17
24 23 22 22 21 21 21 20 20 20 19 19 19 19 19 18 18 18 18 18 18 18 18 18 18 18 18 18 18 18 17 17 18 18 17 17 17 17 17 17 17 17 17
Wind_Speed
14 14 14 15 15 16 16 16 16 17 17 17 17 17 17 18 18 18 18 18 17 17 17 17 17 18 18 18 18 18 18 18 19 19 19 19 18 17 16 16 18 17 18
17 16 15 15 15 15 16 16 16 16 17 17 18 17 17 17 17 17 17 17 17 17 17 17 17 18 18 17 17 16 17 17 17 18 19 18 16 15 15 15 18 16 17
17 17 15 14 15 15 15 15 16 16 16 16 17 16 16 16 17 16 16 16 17 17 17 17 17 17 17 16 15 15 14 14 15 16 16 15 15 16 17 19 18 17 16
17 16 15 14 15 14 14 15 15 15 15 15 16 15 15 15 16 15 15 16 16 16 16 16 16 16 15 15 14 12 11 11 11 11 10 14 15 16 17 17 16 16 15
17 17 16 14 14 14 14 14 14 14 14 14 14 14 14 14 14 15 15 15 15 15 15 16 15 15 13 12 11 9 7 6 5 6 11 15 15 15 15 15 15 15 14
17 18 16 14 14 13 13 13 13 13 13 13 13 14 14 14 13 14 14 14 14 14 14 14 14 13 11 10 8 6 3 2 1 6 12 16 14 14 14 14 14 13 13
18 17 16 14 14 13 13 13 12 12 12 12 12 13 13 13 12 13 13 13 13 13 13 13 12 11 9 7 5 3 1 2 2 8 12 15 14 14 14 13 13 12 12
18 17 16 15 14 13 12 12 11 11 11 11 11 12 12 11 11 11 11 11 11 11 11 11 10 9 7 5 3 1 2 3 4 9 14 15 15 14 13 12 12 11 11
16 16 15 15 14 13 12 11 10 10 10 9 9 10 10 10 10 10 9 10 10 10 10 9 9 8 6 3 1 2 3 4 1 7 14 14 15 14 12 11 10 10 10
13 14 13 14 14 13 12 10 10 9 9 8 8 8 8 9 9 9 9 8 9 9 8 8 7 6 5 3 3 4 4 4 2 6 12 14 15 13 12 11 10 9 9
10 10 10 12 11 12 13 12 11 9 8 8 7 7 8 7 8 8 8 9 8 8 8 7 7 6 5 5 6 6 6 4 3 7 12 16 16 13 12 11 10 9 9
9 8 8 9 7 7 9 10 9 9 9 6 6 7 5 4 5 8 11 10 8 8 8 8 8 7 8 7 9 9 6 6 3 8 12 18 16 13 12 11 10 9 9
7 8 9 8 4 5 5 6 5 5 7 6 6 5 4 3 5 7 9 9 8 8 7 9 9 9 9 6 5 6 5 4 3 9 14 17 16 14 13 11 11 10 10
7 7 9 8 5 5 5 3 3 3 3 3 4 3 3 2 1 2 3 5 6 6 5 5 5 5 5 4 2 3 3 1 4 9 13 16 15 14 13 12 12 11 11
7 7 8 8 6 4 3 1 2 2 2 4 4 2 1 1 1 1 1 1 3 3 3 2 2 2 2 2 2 2 1 1 3 8 10 15 15 14 14 14 13 13 13
8 8 8 8 6 4 2 1 1 1 1 3 3 3 2 2 2 1 1 1 1 2 2 2 2 2 2 2 2 2 2 2 3 7 10 13 15 15 15 15 15 15 15
8 8 8 8 7 5 3 2 1 1 2 1 3 3 1 2 1 1 1 2 2 3 2 2 2 2 3 4 4 3 3 3 3 6 9 10 12 15 17 17 17 17 16
9 8 6 6 8 6 3 1 1 0 1 1 1 2 2 1 1 2 2 2 3 3 2 2 2 3 2 2 3 3 3 3 5 6 8 10 12 12 16 19 19 18 17
9 8 6 4 7 5 5 3 2 1 0 1 1 1 1 1 2 2 2 1 3 2 2 3 2 2 2 2 4 4 4 4 4 7 7 9 11 12 12 17 21 19 18
10 8 7 5 5 5 4 3 2 2 2 2 1 1 1 1 2 2 2 1 2 1 1 2 1 2 2 3 6 4 3 4 4 5 6 7 9 10 11 11 14 15 16
9 9 8 6 5 4 3 3 3 2 2 2 1 2 1 2 2 2 2 1 1 1 2 3 2 3 4 3 3 3 4 4 5 4 4 3 3 5 7 9 11 10 10
10 9 8 7 6 5 3 3 2 2 2 2 1 1 1 2 3 3 1 2 2 2 3 4 3 3 3 2 2 2 2 3 2 3 2 2 2 2 3 6 8 8 8
11 10 9 8 7 6 4 3 2 1 1 0 1 1 2 2 2 3 1 2 3 2 3 4 4 4 3 3 2 2 2 2 1 1 1 1 1 1 1 2 4 6 7
12 11 9 8 7 6 5 4 4 3 2 2 1 1 1 2 2 3 3 2 2 3 3 4 3 3 3 3 2 3 3 2 1 1 1 0 1 1 1 1 2 2 4
11 11 10 8 7 6 5 4 3 3 2 1 1 2 2 2 2 2 2 1 2 2 3 3 2 2 3 3 2 2 3 3 3 2 2 1 1 1 2 1 1 2 3
10 10 10 9 7 6 5 4 4 3 2 1 0 0 1 1 1 1 1 1 1 2 3 3 2 2 2 2 2 2 2 2 2 2 2 2 0 1 1 1 1 2 3
Wind_Direction
94 91 85 83 81 80 81 83 82 81 81 79 78 83 84 83 82 82 82 83 85 89 91 92 93 93 93 94 95 95 96 97 99 101 100 98 98 100 103 107 105 102 107
102 97 88 85 84 83 82 83 84 84 82 81 80 82 83 85 84 84 83 83 85 90 91 92 94 95 96 97 99 100 101 103 107 109 106 100 96 95 97 96 98 107 108
105 103 94 87 86 85 84 83 84 85 84 84 83 83 83 85 85 85 86 86 86 90 91 93 95 97 99 99 101 105 108 112 116 119 117 107 99 95 95 97 102 108 108
102 100 95 91 88 86 85 86 85 86 86 87 87 86 85 85 86 87 87 87 89 92 93 95 97 99 100 101 103 107 114 122 128 129 121 110 105 102 102 104 108 109 111
101 101 99 94 90 89 87 86 86 86 88 88 89 89 89 88 88 88 88 89 91 93 95 97 98 100 102 103 104 106 113 125 134 117 101 100 102 110 109 109 110 111 113
111 106 103 99 94 92 90 88 87 87 87 88 89 90 90 89 89 90 91 92 93 94 96 99 101 103 105 106 107 106 113 142 157 115 111 109 111 115 114 114 114 114 114
111 111 110 106 101 98 95 92 90 88 88 89 90 92 91 91 91 92 94 95 97 97 98 103 105 105 108 110 108 104 77 356 111 110 103 109 116 120 119 118 119 119 120
116 115 118 115 111 106 101 98 95 94 93 93 95 97 96 95 94 94 95 99 101 102 104 106 109 111 114 114 109 61 327 339 103 117 109 114 124 126 125 124 123 125 126
118 125 131 128 123 116 111 108 106 104 104 104 105 107 107 106 104 103 102 105 107 111 112 115 117 119 122 132 157 300 317 336 20 123 119 122 131 132 133 133 132 131 133
120 126 132 132 136 134 128 127 124 123 124 123 123 127 129 125 122 124 118 118 120 125 127 129 132 136 147 181 233 267 294 315 229 126 119 131 139 141 141 142 142 141 141
109 118 127 127 141 144 138 141 147 146 152 155 155 167 169 162 151 145 132 136 138 143 148 152 155 162 181 209 231 250 269 248 185 119 123 140 147 149 150 151 153 154 153
119 120 113 115 125 128 129 147 161 155 163 182 160 172 182 157 142 138 147 152 157 165 172 179 181 189 212 215 218 230 240 224 184 125 133 147 152 155 159 162 164 166 167
128 119 115 113 123 116 120 143 135 137 154 167 151 160 151 151 153 144 157 162 179 188 198 189 197 209 220 225 199 201 226 240 158 123 143 155 157 161 167 172 175 177 179
132 124 120 115 86 58 66 95 132 136 148 144 140 161 144 158 144 111 128 161 181 191 199 187 200 206 219 231 217 210 218 228 120 125 152 162 165 169 175 180 185 188 190
136 125 109 107 102 83 53 349 89 100 111 118 123 121 117 122 93 81 98 182 210 188 179 182 189 217 230 229 235 230 244 231 140 140 156 170 174 179 184 190 194 197 199
147 134 127 128 126 126 128 1 14 78 102 100 106 100 62 67 71 39 209 264 260 224 197 206 213 188 219 228 234 220 206 223 174 159 161 177 185 189 193 197 200 203 205
147 136 141 149 146 155 166 207 193 191 140 124 118 128 121 104 138 252 265 237 265 255 210 221 259 227 225 222 223 225 202 216 196 182 177 181 190 200 203 204 206 207 209
148 143 164 165 147 156 172 218 270 317 87 97 118 136 129 140 205 255 263 249 266 259 226 209 241 250 253 252 242 230 214 200 200 203 197 196 195 201 206 209 209 210 212
145 149 165 155 144 164 174 193 220 202 51 256 195 124 112 249 252 250 267 268 263 260 258 257 209 255 258 265 259 238 228 220 205 214 209 209 202 195 193 203 208 211 213
150 154 164 161 154 168 174 195 225 216 202 217 191 129 152 259 281 294 274 265 286 294 294 288 295 277 266 260 268 269 263 254 235 218 215 210 203 194 192 187 197 210 212
158 161 161 172 168 176 190 203 213 210 218 210 181 147 151 286 296 287 309 328 290 285 289 297 283 271 256 248 271 285 272 246 237 231 233 217 192 186 178 170 175 186 196
165 165 166 177 175 188 199 207 211 220 224 194 143 132 183 247 275 263 235 265 268 262 270 275 268 261 261 241 224 258 285 290 270 256 237 206 199 158 149 164 163 175 178
173 175 180 178 176 187 188 201 220 192 256 218 167 178 214 233 251 283 270 274 278 259 254 255 258 245 254 271 233 208 221 239 273 272 231 189 153 145 143 121 146 168 179
177 176 175 171 173 179 190 204 206 201 210 206 189 178 202 223 255 259 265 262 281 288 280 267 267 266 258 263 259 228 233 243 217 279 308 171 174 142 99 105 115 147 173
178 173 169 164 169 175 186 197 206 222 226 214 188 172 207 224 248 268 264 282 281 286 300 293 306 286 265 258 262 257 249 248 243 228 252 300 6 69 93 79 64 82 106
173 170 164 161 167 172 183 193 200 216 241 288 21 281 228 236 241 261 295 303 300 298 300 298 300 293 285 280 279 274 252 237 235 228 221 233 232 356 64 75 69 67 83
Height
1525 1524 1523 1524 1523 1524 1524 1523 1524 1524 1524 1524 1523 1523 1524 1525 1526 1526 1527 1528 1528 1529 1530 1531 1532 1533 1535 1536 1537 1539 1540 1541 1543 1544 1545 1546 1547 1548 1549 1551 1552 1553 1555
1525 1525 1526 1526 1526 1526 1527 1527 1527 1527 1527 1527 1527 1527 1528 1528 1529 1530 1530 1531 1531 1531 1533 1534 1535 1536 1538 1539 1540 1542 1543 1544 1545 1547 1548 1549 1550 1551 1552 1553 1555 1556 1557
1527 1527 1528 1528 1529 1529 1529 1530 1530 1530 1530 1530 1530 1531 1531 1532 1532 1533 1534 1534 1534 1534 1535 1537 1538 1539 1541 1542 1543 1544 1546 1547 1548 1549 1551 1552 1553 1554 1555 1556 1557 1558 1559
1529 1529 1530 1530 1531 1531 1532 1532 1533 1533 1533 1534 1534 1534 1535 1535 1536 1536 1537 1537 1538 1538 1539 1540 1541 1542 1543 1545 1546 1548 1549 1550 1551 1552 1554 1555 1555 1556 1557 1558 1559 1560 1562
1531 1531 1532 1532 1533 1534 1534 1535 1536 1536 1536 1537 1537 1538 1538 1538 1539 1539 1540 1540 1541 1542 1542 1543 1544 1545 1546 1547 1549 1550 1551 1553 1554 1555 1556 1557 1558 1559 1559 1560 1561 1562 1563
1533 1533 1534 1535 1535 1536 1537 1537 1538 1539 1539 1540 1540 1541 1541 1541 1542 1542 1543 1543 1544 1544 1545 1546 1546 1548 1549 1550 1551 1552 1554 1555 1556 1558 1558 1559 1560 1560 1561 1562 1563 1564 1565
1535 1535 1536 1537 1538 1538 1539 1540 1540 1541 1542 1542 1543 1543 1544 1544 1545 1545 1545 1546 1546 1547 1548 1548 1549 1550 1551 1552 1553 1555 1556 1557 1558 1559 1560 1560 1561 1562 1563 1564 1565 1566 1567
1537 1537 1538 1539 1540 1540 1541 1542 1542 1543 1544 1544 1545 1546 1546 1547 1547 1548 1548 1548 1549 1549 1550 1550 1551 1552 1553 1554 1555 1556 1557 1558 1560 1561 1561 1562 1563 1563 1564 1565 1566 1567 1568
1539 1539 1540 1541 1542 1542 1543 1544 1544 1545 1546 1547 1547 1548 1549 1549 1550 1550 1550 1551 1551 1551 1552 1552 1553 1554 1555 1556 1557 1558 1559 1560 1561 1562 1562 1563 1564 1564 1565 1566 1567 1568 1569
1541 1542 1542 1543 1544 1544 1545 1546 1547 1547 1548 1548 1549 1550 1550 1551 1551 1552 1552 1553 1553 1553 1554 1554 1555 1556 1557 1558 1559 1560 1561 1562 1563 1564 1564 1564 1565 1565 1566 1567 1568 1569 1570
1543 1544 1545 1546 1546 1547 1547 1548 1548 1549 1549 1550 1551 1552 1552 1552 1553 1553 1554 1554 1555 1555 1555 1556 1556 1557 1558 1559 1560 1561 1562 1563 1564 1564 1564 1565 1565 1566 1567 1567 1568 1569 1570
1544 1546 1547 1548 1549 1550 1550 1550 1550 1551 1551 1552 1552 1553 1554 1554 1555 1555 1555 1556 1556 1556 1557 1557 1558 1559 1560 1561 1562 1562 1563 1564 1564 1564 1564 1565 1566 1566 1567 1568 1568 1569 1570
1545 1547 1548 1549 1550 1551 1551 1552 1552 1553 1553 1553 1553 1554 1555 1556 1556 1557 1556 1556 1557 1557 1557 1558 1559 1559 1560 1561 1562 1563 1563 1564 1564 1564 1564 1565 1566 1566 1567 1568 1568 1569 1570
1546 1547 1549 1549 1550 1550 1552 1553 1553 1554 1554 1554 1554 1555 1556 1556 1557 1557 1557 1557 1557 1558 1558 1559 1559 1560 1561 1562 1563 1563 1564 1564 1565 1564 1564 1565 1565 1566 1567 1567 1568 1569 1570
1546 1548 1548 1549 1549 1550 1551 1552 1554 1554 1555 1555 1555 1555 1556 1557 1557 1557 1558 1558 1558 1558 1558 1559 1559 1560 1561 1562 1562 1563 1564 1564 1564 1564 1564 1564 1565 1566 1566 1567 1567 1568 1569
1546 1548 1548 1549 1549 1550 1551 1552 1553 1554 1555 1555 1555 1556 1556 1556 1556 1557 1557 1557 1558 1558 1558 1558 1559 1559 1559 1560 1561 1562 1563 1563 1563 1563 1563 1564 1564 1565 1565 1565 1566 1567 1567
1546 1547 1548 1549 1549 1550 1552 1552 1554 1554 1555 1555 1555 1555 1556 1556 1556 1556 1556 1557 1557 1557 1558 1558 1558 1558 1559 1560 1560 1561 1561 1562 1562 1562 1562 1563 1563 1563 1564 1564 1565 1565 1566
1545 1547 1548 1550 1549 1550 1551 1552 1553 1554 1554 1554 1555 1555 1555 1555 1555 1555 1555 1555 1556 1556 1557 1557 1557 1558 1558 1558 1559 1559 1560 1560 1560 1561 1561 1561 1561 1562 1562 1562 1563 1564 1564
1544 1546 1547 1549 1549 1549 1550 1551 1552 1553 1553 1554 1554 1554 1554 1554 1554 1554 1554 1554 1554 1555 1555 1555 1555 1556 1556 1556 1557 1557 1557 1558 1558 1558 1559 1559 1559 1560 1560 1560 1561 1561 1562
1543 1544 1546 1547 1548 1549 1549 1550 1551 1552 1552 1552 1553 1553 1553 1553 1553 1553 1553 1553 1553 1553 1553 1553 1553 1553 1554 1554 1555 1555 1555 1555 1556 1556 1557 1557 1557 1557 1557 1558 1558 1559 1559
1542 1543 1544 1545 1546 1547 1548 1549 1549 1550 1551 1551 1552 1552 1552 1552 1552 1551 1551 1551 1551 1551 1551 1551 1550 1551 1551 1552 1552 1552 1552 1552 1552 1553 1554 1555 1554 1554 1555 1555 1555 1556 1557
1540 1541 1542 1543 1545 1546 1547 1547 1549 1549 1550 1550 1550 1550 1550 1550 1550 1550 1549 1549 1549 1549 1548 1548 1548 1548 1548 1550 1550 1550 1550 1551 1550 1550 1550 1551 1551 1552 1552 1553 1553 1553 1554
1538 1539 1541 1542 1543 1545 1546 1547 1548 1548 1549 1549 1550 1549 1549 1549 1548 1548 1548 1547 1547 1547 1546 1546 1546 1546 1546 1546 1547 1548 1548 1547 1547 1547 1547 1547 1547 1549 1550 1551 1551 1551 1551
1536 1537 1539 1540 1542 1543 1545 1546 1547 1547 1548 1548 1548 1548 1548 1547 1547 1547 1546 1546 1545 1545 1545 1544 1544 1543 1543 1543 1544 1545 1545 1545 1546 1545 1546 1545 1546 1547 1548 1548 1548 1548 1549
1534 1536 1537 1539 1540 1542 1543 1544 1545 1546 1547 1547 1547 1547 1547 1546 1546 1545 1545 1544 1543 1543 1543 1542 1542 1541 1541 1541 1541 1542 1542 1543 1543 1544 1543 1544 1545 1545 1545 1546 1546 1546 1546
1532 1534 1536 1537 1539 1540 1541 1543 1544 1545 1545 1546 1546 1546 1546 1546 1545 1544 1544 1543 1542 1541 1541 1540 1539 1539 1538 1538 1538 1538 1539 1539 1540 1540 1540 1541 1542 1543 1543 1543 1544 1544 1543